DPV2202 SBCG-SBSP

Flight info

Callsign DPV2202
Flight time N/A
Altitude 39000
Route BRAKE DCT ASEPO UM411 UTLOT
Aircraft A20N/M-SDE2E3FGHIRWXY/LB1

Departure

Time 2026-04-20 20:50
Airport Campo Grande Airport (SBCG)

Arrival

Time N/A
Airport Congonhas–Deputado Freitas Nobre Airport (SBSP)
Time Latitude Longitude Altitude Speed Heading
2026-04-20 20:32 -20.45795 -54.66933 1841 ft 0 kts 354°
2026-04-20 20:37 -20.45798 -54.66932 1841 ft 1 kts 358°
2026-04-20 20:37 -20.45810 -54.66935 1841 ft 2 kts 354°
2026-04-20 20:37 -20.45825 -54.66932 1841 ft 2 kts 354°
2026-04-20 20:38 -20.45838 -54.66931 1841 ft 0 kts 354°
2026-04-20 20:38 -20.45847 -54.66929 1841 ft 1 kts 315°
2026-04-20 20:38 -20.45851 -54.66919 1841 ft 0 kts 269°
2026-04-20 20:38 -20.45850 -54.66912 1841 ft 1 kts 261°
2026-04-20 20:39 -20.45850 -54.66910 1841 ft 0 kts 263°
2026-04-20 20:41 -20.45851 -54.66917 1841 ft 1 kts 263°
2026-04-20 20:42 -20.45853 -54.66934 1841 ft 3 kts 263°
2026-04-20 20:42 -20.45856 -54.66963 1841 ft 4 kts 264°
2026-04-20 20:42 -20.45859 -54.67003 1841 ft 6 kts 265°
2026-04-20 20:42 -20.45864 -54.67054 1841 ft 7 kts 263°
2026-04-20 20:43 -20.45874 -54.67115 1841 ft 8 kts 247°
2026-04-20 20:43 -20.45927 -54.67144 1841 ft 10 kts 177°
2026-04-20 20:43 -20.46001 -54.67137 1841 ft 11 kts 174°
2026-04-20 20:43 -20.46084 -54.67128 1841 ft 12 kts 173°
2026-04-20 20:44 -20.46173 -54.67116 1841 ft 13 kts 173°
2026-04-20 20:44 -20.46270 -54.67104 1841 ft 14 kts 174°
2026-04-20 20:44 -20.46372 -54.67097 1842 ft 15 kts 184°
2026-04-20 20:44 -20.46467 -54.67139 1841 ft 15 kts 221°
2026-04-20 20:45 -20.46548 -54.67218 1841 ft 15 kts 222°
2026-04-20 20:45 -20.46631 -54.67299 1841 ft 16 kts 223°
2026-04-20 20:45 -20.46718 -54.67383 1841 ft 16 kts 223°
2026-04-20 20:45 -20.46805 -54.67468 1841 ft 17 kts 223°
2026-04-20 20:46 -20.46896 -54.67554 1841 ft 17 kts 221°
2026-04-20 20:46 -20.46988 -54.67643 1841 ft 17 kts 223°
2026-04-20 20:46 -20.47080 -54.67732 1841 ft 18 kts 224°
2026-04-20 20:46 -20.47175 -54.67824 1841 ft 18 kts 221°
2026-04-20 20:47 -20.47269 -54.67916 1841 ft 18 kts 223°
2026-04-20 20:47 -20.47365 -54.68008 1841 ft 18 kts 222°
2026-04-20 20:47 -20.47463 -54.68102 1841 ft 18 kts 222°
2026-04-20 20:47 -20.47560 -54.68195 1841 ft 19 kts 222°
2026-04-20 20:48 -20.47659 -54.68292 1841 ft 19 kts 223°
2026-04-20 20:48 -20.47728 -54.68349 1841 ft 6 kts 199°
2026-04-20 20:48 -20.47771 -54.68337 1841 ft 7 kts 133°
2026-04-20 20:48 -20.47805 -54.68290 1841 ft 8 kts 133°
2026-04-20 20:49 -20.47842 -54.68236 1841 ft 9 kts 105°
2026-04-20 20:49 -20.47811 -54.68177 1841 ft 10 kts 41°
2026-04-20 20:49 -20.47623 -54.67996 1842 ft 71 kts 41°
2026-04-20 20:49 -20.47090 -54.67484 1842 ft 132 kts 42°
2026-04-20 20:50 -20.46279 -54.66702 1866 ft 179 kts 40°
2026-04-20 20:50 -20.45398 -54.65821 2520 ft 173 kts 40°
2026-04-20 20:50 -20.44456 -54.64933 2979 ft 188 kts 39°
2026-04-20 20:50 -20.43427 -54.63982 3424 ft 205 kts 40°
2026-04-20 20:51 -20.42352 -54.62971 3690 ft 209 kts 40°
2026-04-20 20:51 -20.41200 -54.61881 3931 ft 231 kts 40°
2026-04-20 20:51 -20.39967 -54.60706 4442 ft 242 kts 41°
2026-04-20 20:51 -20.38867 -54.59344 5002 ft 253 kts 63°
2026-04-20 20:52 -20.38481 -54.57482 5465 ft 270 kts 92°
2026-04-20 20:52 -20.39008 -54.55539 6153 ft 277 kts 115°
2026-04-20 20:52 -20.39819 -54.53698 6619 ft 277 kts 104°
2026-04-20 20:52 -20.40091 -54.51674 6910 ft 276 kts 94°
2026-04-20 20:53 -20.40253 -54.49630 6973 ft 276 kts 93°
2026-04-20 20:53 -20.40443 -54.47590 6967 ft 275 kts 99°
2026-04-20 20:53 -20.40927 -54.45633 6929 ft 276 kts 109°
2026-04-20 20:53 -20.41666 -54.43739 6953 ft 277 kts 112°
2026-04-20 20:54 -20.42457 -54.41848 6961 ft 278 kts 112°
2026-04-20 20:54 -20.43247 -54.39957 6973 ft 278 kts 112°
2026-04-20 20:54 -20.44025 -54.38081 6954 ft 278 kts 112°
2026-04-20 20:54 -20.44809 -54.36191 6949 ft 278 kts 114°
2026-04-20 20:55 -20.45669 -54.34302 7089 ft 284 kts 114°
2026-04-20 20:55 -20.46539 -54.32416 7811 ft 286 kts 114°
2026-04-20 20:55 -20.47410 -54.30529 8703 ft 283 kts 114°
2026-04-20 20:55 -20.48269 -54.28671 9500 ft 283 kts 114°
2026-04-20 20:56 -20.49140 -54.26785 10246 ft 285 kts 114°
2026-04-20 20:56 -20.50034 -54.24841 10679 ft 299 kts 114°
2026-04-20 20:56 -20.50971 -54.22808 10991 ft 317 kts 114°
2026-04-20 20:56 -20.51973 -54.20631 11282 ft 334 kts 115°
2026-04-20 20:57 -20.53033 -54.18335 11613 ft 349 kts 115°
2026-04-20 20:57 -20.54107 -54.16008 12147 ft 355 kts 115°
2026-04-20 20:57 -20.54359 -54.15461 12283 ft 356 kts 115°
2026-04-20 20:57 -20.54377 -54.15423 12292 ft 356 kts 115°